Вернуться в каталог

BREEZE-M DEB

TANK

АктивенHEO
NORAD 33279·DEBRIS·🇷🇺 Russia

Запущен Aug 18, 2008 с Baikonur Cosmodrome

Loading…

Ближайшие Пролёты (ближайшие 24 часа)

TLE

СвежийSource: Space-Track

Эпоха: Sep 14, 2026, 12:00 UTC

1 33279U 08039B   26257.50047477  .00000134  00000-0  18445-3 0  9993
2 33279  46.0196 303.3185 4829277  76.6104 331.2245  5.74704574375848

Отслеживайте BREEZE-M DEB в реальном времени с AllMySat

Download on the App Store